time, SWTMP
 UTC ,degC
31-May-2023 18:00:00, 2.93
31-May-2023 18:10:00, 2.93
31-May-2023 18:20:00, 2.96
31-May-2023 18:30:00, 2.95
31-May-2023 18:40:00, 2.90
31-May-2023 18:50:00, 2.93
31-May-2023 19:00:00, 2.92
31-May-2023 19:10:00, 2.94
31-May-2023 19:20:00, 2.93
31-May-2023 19:30:00, 2.95
31-May-2023 19:40:00, 2.94
31-May-2023 19:50:00, 2.92
31-May-2023 20:00:00, 2.91
31-May-2023 20:10:00, 2.90
31-May-2023 20:20:00, 2.94
31-May-2023 20:30:00, 2.97
31-May-2023 20:40:00, 2.99
31-May-2023 20:50:00, 2.96
31-May-2023 21:00:00, 2.94
31-May-2023 21:10:00, 2.97
31-May-2023 21:20:00, 2.95
31-May-2023 21:30:00, 2.92
31-May-2023 21:40:00, 2.95
31-May-2023 21:50:00, 2.95
31-May-2023 22:00:00, 2.94
31-May-2023 22:10:00, 2.97
31-May-2023 22:20:00, 2.97
31-May-2023 22:30:00, 2.95
31-May-2023 22:40:00, 2.95
31-May-2023 22:50:00, 2.95
31-May-2023 23:00:00, 2.94
31-May-2023 23:10:00, 2.93
31-May-2023 23:20:00, 2.93
31-May-2023 23:30:00, 2.95
31-May-2023 23:40:00, 2.93
31-May-2023 23:50:00, 2.93
01-Jun-2023 00:00:00, 2.92
01-Jun-2023 00:10:00, 2.89
01-Jun-2023 00:20:00, 2.88
01-Jun-2023 00:30:00, 2.91
01-Jun-2023 00:40:00, 2.91
01-Jun-2023 00:50:00, 2.92
01-Jun-2023 01:00:00, 2.93
01-Jun-2023 01:10:00, 2.92
01-Jun-2023 01:20:00, 2.91
01-Jun-2023 01:30:00, 2.89
01-Jun-2023 01:40:00, 2.88
01-Jun-2023 01:50:00, 2.88
01-Jun-2023 02:00:00, 2.88
01-Jun-2023 02:10:00, 2.87
01-Jun-2023 02:20:00, 2.87
01-Jun-2023 02:30:00, 2.87
01-Jun-2023 02:40:00, 2.87
01-Jun-2023 02:50:00, 2.87
01-Jun-2023 03:00:00, 2.87
01-Jun-2023 03:10:00, 2.86
01-Jun-2023 03:20:00, 2.86
01-Jun-2023 03:30:00, 2.86
01-Jun-2023 03:40:00, 2.86
01-Jun-2023 03:50:00, 2.86
01-Jun-2023 04:00:00, 2.86
01-Jun-2023 04:10:00, 2.86
01-Jun-2023 04:20:00, 2.86
01-Jun-2023 04:30:00, 2.86
01-Jun-2023 04:40:00, 2.86
01-Jun-2023 04:50:00, 2.86
01-Jun-2023 05:00:00, 2.86
01-Jun-2023 05:10:00, 2.86
01-Jun-2023 05:20:00, 2.86
01-Jun-2023 05:30:00, 2.86
01-Jun-2023 05:40:00, 2.86
01-Jun-2023 05:50:00, 2.86
01-Jun-2023 06:00:00, 2.86
01-Jun-2023 06:10:00, 2.86
01-Jun-2023 06:20:00, 2.86
01-Jun-2023 06:30:00, 2.86
01-Jun-2023 06:40:00, 2.85
01-Jun-2023 06:50:00, 2.85
01-Jun-2023 07:00:00, 2.85
01-Jun-2023 07:10:00, 2.85
01-Jun-2023 07:20:00, 2.85
01-Jun-2023 07:30:00, 2.85
01-Jun-2023 07:40:00, 2.85
01-Jun-2023 07:50:00, 2.86
01-Jun-2023 08:00:00, 2.85
01-Jun-2023 08:10:00, 2.85
01-Jun-2023 08:20:00, 2.85
01-Jun-2023 08:30:00, 2.85
01-Jun-2023 08:40:00, 2.84
01-Jun-2023 08:50:00, 2.85
01-Jun-2023 09:00:00, 2.84
01-Jun-2023 09:10:00, 2.85
01-Jun-2023 09:20:00, 2.85
01-Jun-2023 09:30:00, 2.85
01-Jun-2023 09:40:00, 2.85
01-Jun-2023 09:50:00, 2.85
01-Jun-2023 10:00:00, 2.85
01-Jun-2023 10:10:00, 2.85
01-Jun-2023 10:20:00, 2.85
01-Jun-2023 10:30:00, 2.86
01-Jun-2023 10:40:00, 2.86
01-Jun-2023 10:50:00, 2.86
01-Jun-2023 11:00:00, 2.86
01-Jun-2023 11:10:00, 2.86
01-Jun-2023 11:20:00, 2.87
01-Jun-2023 11:30:00, 2.87
01-Jun-2023 11:40:00, 2.88
01-Jun-2023 11:50:00, 2.88
01-Jun-2023 12:00:00, 2.89
01-Jun-2023 12:10:00, 2.89
01-Jun-2023 12:20:00, 2.90
01-Jun-2023 12:30:00, 2.92
01-Jun-2023 12:40:00, 2.91
01-Jun-2023 12:50:00, 2.92
01-Jun-2023 13:00:00, 2.92
01-Jun-2023 13:10:00, 2.93
01-Jun-2023 13:20:00, 2.94
01-Jun-2023 13:30:00, 2.98
01-Jun-2023 13:40:00, 2.99
01-Jun-2023 13:50:00, 3.00
01-Jun-2023 14:00:00, 3.00
01-Jun-2023 14:10:00, 2.95
01-Jun-2023 14:20:00, 2.93
01-Jun-2023 14:30:00, 2.93
01-Jun-2023 14:40:00, 2.94
01-Jun-2023 14:50:00, 2.95
01-Jun-2023 15:00:00, 2.94
01-Jun-2023 15:10:00, 2.95
01-Jun-2023 15:20:00, 2.96
01-Jun-2023 15:30:00, 2.97
01-Jun-2023 15:40:00, 2.97
01-Jun-2023 15:50:00, 3.01
01-Jun-2023 16:00:00, 3.11
01-Jun-2023 16:10:00, 3.13
01-Jun-2023 16:20:00, 3.06
01-Jun-2023 16:30:00, 3.02
01-Jun-2023 16:40:00, 3.02
01-Jun-2023 16:50:00, 3.03
01-Jun-2023 17:00:00, 3.01
01-Jun-2023 17:10:00, 3.03
01-Jun-2023 17:20:00, 3.07
01-Jun-2023 17:30:00, 3.05
01-Jun-2023 17:40:00, 3.09
01-Jun-2023 17:50:00, 3.09
01-Jun-2023 18:00:00, 3.08
01-Jun-2023 18:10:00, 3.06
01-Jun-2023 18:20:00, 3.11
01-Jun-2023 18:30:00, 3.13
01-Jun-2023 18:40:00, 3.18
01-Jun-2023 18:50:00, 3.24
01-Jun-2023 19:00:00, 3.17
01-Jun-2023 19:10:00, 3.13
01-Jun-2023 19:20:00, 3.15
01-Jun-2023 19:30:00, 3.19
01-Jun-2023 19:40:00, 3.19
01-Jun-2023 19:50:00, 3.18
01-Jun-2023 20:00:00, 3.18
01-Jun-2023 20:10:00, 3.19
01-Jun-2023 20:20:00, 3.17
01-Jun-2023 20:30:00, 3.15
01-Jun-2023 20:40:00, 3.13
01-Jun-2023 20:50:00, 3.11
01-Jun-2023 21:00:00, 3.12
01-Jun-2023 21:10:00, 3.13
01-Jun-2023 21:20:00, 3.12
01-Jun-2023 21:30:00, 3.16
01-Jun-2023 21:40:00, 3.18
01-Jun-2023 21:50:00, 3.20
01-Jun-2023 22:00:00, 3.18
01-Jun-2023 22:10:00, 3.15
01-Jun-2023 22:20:00, 3.15
01-Jun-2023 22:30:00, 3.16
01-Jun-2023 22:40:00, 3.16
01-Jun-2023 22:50:00, 3.16
01-Jun-2023 23:00:00, 3.16
01-Jun-2023 23:10:00, 3.14
01-Jun-2023 23:20:00, 3.14
01-Jun-2023 23:30:00, 3.16
01-Jun-2023 23:40:00, 3.16
01-Jun-2023 23:50:00, 3.16
02-Jun-2023 00:00:00, 3.14
02-Jun-2023 00:10:00, 3.13
02-Jun-2023 00:20:00, 3.14
02-Jun-2023 00:30:00, 3.15
02-Jun-2023 00:40:00, 3.14
02-Jun-2023 00:50:00, 3.11
02-Jun-2023 01:00:00, 3.11
02-Jun-2023 01:10:00, 3.11
02-Jun-2023 01:20:00, 3.11
02-Jun-2023 01:30:00, 3.11
02-Jun-2023 01:40:00, 3.11
02-Jun-2023 01:50:00, 3.09
02-Jun-2023 02:00:00, 3.10
02-Jun-2023 02:10:00, 3.10
02-Jun-2023 02:20:00, 3.10
02-Jun-2023 02:30:00, 3.10
02-Jun-2023 02:40:00, 3.10
02-Jun-2023 02:50:00, 3.10
02-Jun-2023 03:00:00, 3.10
02-Jun-2023 03:10:00, 3.10
02-Jun-2023 03:20:00, 3.10
02-Jun-2023 03:30:00, 3.09
02-Jun-2023 03:40:00, 3.09
02-Jun-2023 03:50:00, 3.08
02-Jun-2023 04:00:00, 3.08
02-Jun-2023 04:10:00, 3.08
02-Jun-2023 04:20:00, 3.08
02-Jun-2023 04:30:00, 3.08
02-Jun-2023 04:40:00, 3.09
02-Jun-2023 04:50:00, 3.08
02-Jun-2023 05:00:00, 3.08
02-Jun-2023 05:10:00, 3.08
02-Jun-2023 05:20:00, 3.08
02-Jun-2023 05:30:00, 3.07
02-Jun-2023 05:40:00, 3.07
02-Jun-2023 05:50:00, 3.07
02-Jun-2023 06:00:00, 3.06
02-Jun-2023 06:10:00, 3.06
02-Jun-2023 06:20:00, 3.07
02-Jun-2023 06:30:00, 3.07
02-Jun-2023 06:40:00, 3.07
02-Jun-2023 06:50:00, 3.06
02-Jun-2023 07:00:00, 3.06
02-Jun-2023 07:10:00, 3.06
02-Jun-2023 07:20:00, 3.06
02-Jun-2023 07:30:00, 3.06
02-Jun-2023 07:40:00, 3.06
02-Jun-2023 07:50:00, 3.06
02-Jun-2023 08:00:00, 3.06
02-Jun-2023 08:10:00, 3.06
02-Jun-2023 08:20:00, 3.06
02-Jun-2023 08:30:00, 3.07
02-Jun-2023 08:40:00, 3.07
02-Jun-2023 08:50:00, 3.07
02-Jun-2023 09:00:00, 3.07
02-Jun-2023 09:10:00, 3.08
02-Jun-2023 09:20:00, 3.08
02-Jun-2023 09:30:00, 3.08
02-Jun-2023 09:40:00, 3.08
02-Jun-2023 09:50:00, 3.08
02-Jun-2023 10:00:00, 3.08
02-Jun-2023 10:10:00, 3.08
02-Jun-2023 10:20:00, 3.08
02-Jun-2023 10:30:00, 3.08
02-Jun-2023 10:40:00, 3.08
02-Jun-2023 10:50:00, 3.09
02-Jun-2023 11:00:00, 3.08
02-Jun-2023 11:10:00, 3.09
02-Jun-2023 11:20:00, 3.08
02-Jun-2023 11:30:00, 3.08
02-Jun-2023 11:40:00, 3.08
02-Jun-2023 11:50:00, 3.09
02-Jun-2023 12:00:00, 3.10
02-Jun-2023 12:10:00, 3.11
02-Jun-2023 12:20:00, 3.11
02-Jun-2023 12:30:00, 3.11
02-Jun-2023 12:40:00, 3.12
02-Jun-2023 12:50:00, 3.11
02-Jun-2023 13:00:00, 3.11
02-Jun-2023 13:10:00, 3.11
02-Jun-2023 13:20:00, 3.12
02-Jun-2023 13:30:00, 3.12
02-Jun-2023 13:40:00, 3.13
02-Jun-2023 13:50:00, 3.14
02-Jun-2023 14:00:00, 3.14
02-Jun-2023 14:10:00, 3.15
02-Jun-2023 14:20:00, 3.15
02-Jun-2023 14:30:00, 3.16
02-Jun-2023 14:40:00, 3.16
02-Jun-2023 14:50:00, 3.17
02-Jun-2023 15:00:00, 3.18
02-Jun-2023 15:10:00, 3.19
02-Jun-2023 15:20:00, 3.22
02-Jun-2023 15:30:00, 3.23
02-Jun-2023 15:40:00, 3.19
02-Jun-2023 15:50:00, 3.23
02-Jun-2023 16:00:00, 3.24
02-Jun-2023 16:10:00, 3.27
02-Jun-2023 16:20:00, 3.26
02-Jun-2023 16:30:00, 3.31
02-Jun-2023 16:40:00, 3.27
02-Jun-2023 16:50:00, 3.27
02-Jun-2023 17:00:00, 3.27
02-Jun-2023 17:10:00, 3.27
02-Jun-2023 17:20:00, 3.32
02-Jun-2023 17:30:00, 3.31
02-Jun-2023 17:40:00, 3.36
02-Jun-2023 17:50:00, 3.27
02-Jun-2023 18:00:00, 3.31
02-Jun-2023 18:10:00, 3.28
02-Jun-2023 18:20:00, 3.28
02-Jun-2023 18:30:00, 3.33
02-Jun-2023 18:40:00, 3.29
02-Jun-2023 18:50:00, 3.32
02-Jun-2023 19:00:00, 3.38
02-Jun-2023 19:10:00, 3.38
02-Jun-2023 19:20:00, 3.39
02-Jun-2023 19:30:00, 3.34
02-Jun-2023 19:40:00, 3.37
02-Jun-2023 19:50:00, 3.35
02-Jun-2023 20:00:00, 3.41
02-Jun-2023 20:10:00, 3.32
02-Jun-2023 20:20:00, 3.40
02-Jun-2023 20:30:00, 3.35
02-Jun-2023 20:40:00, 3.35
02-Jun-2023 20:50:00, 3.38
02-Jun-2023 21:00:00, 3.38
02-Jun-2023 21:10:00, 3.37
02-Jun-2023 21:20:00, 3.37
02-Jun-2023 21:30:00, 3.37
02-Jun-2023 21:40:00, 3.33
02-Jun-2023 21:50:00, 3.30
02-Jun-2023 22:00:00, 3.31
02-Jun-2023 22:10:00, 3.31
02-Jun-2023 22:20:00, 3.32
02-Jun-2023 22:30:00, 3.33
02-Jun-2023 22:40:00, 3.34
02-Jun-2023 22:50:00, 3.38
02-Jun-2023 23:00:00, 3.42
02-Jun-2023 23:10:00, 3.40
02-Jun-2023 23:20:00, 3.40
02-Jun-2023 23:30:00, 3.40
02-Jun-2023 23:40:00, 3.38
02-Jun-2023 23:50:00, 3.39
03-Jun-2023 00:00:00, 3.37
03-Jun-2023 00:10:00, 3.35
03-Jun-2023 00:20:00, 3.35
03-Jun-2023 00:30:00, 3.34
03-Jun-2023 00:40:00, 3.33
03-Jun-2023 00:50:00, 3.33
03-Jun-2023 01:00:00, 3.34
03-Jun-2023 01:10:00, 3.34
03-Jun-2023 01:20:00, 8.35
03-Jun-2023 01:30:00, 10.67
03-Jun-2023 01:40:00, 10.68
03-Jun-2023 01:50:00, 10.63
03-Jun-2023 02:00:00, 10.58
03-Jun-2023 02:10:00, 10.54
03-Jun-2023 02:20:00, 10.51
03-Jun-2023 02:30:00, 10.47
03-Jun-2023 02:40:00, 10.44
03-Jun-2023 02:50:00, 10.43
03-Jun-2023 03:00:00, 10.43
03-Jun-2023 03:10:00, 10.46
03-Jun-2023 03:20:00, 10.47
03-Jun-2023 03:30:00, 10.49
03-Jun-2023 03:40:00, 10.50
03-Jun-2023 03:50:00, 10.48
03-Jun-2023 04:00:00, 10.46
03-Jun-2023 04:10:00, 10.30
03-Jun-2023 04:20:00, 10.07
03-Jun-2023 04:30:00, 10.00
03-Jun-2023 04:40:00, 10.01
03-Jun-2023 04:50:00, 9.95
03-Jun-2023 05:00:00, 9.65
03-Jun-2023 05:10:00, 9.06
03-Jun-2023 05:20:00, 7.90
03-Jun-2023 05:30:00, 7.01
03-Jun-2023 05:40:00, 5.89
03-Jun-2023 05:50:00, 4.42
03-Jun-2023 06:00:00, 3.95
03-Jun-2023 06:10:00, 3.78
03-Jun-2023 06:20:00, 3.66
03-Jun-2023 06:30:00, 3.60
03-Jun-2023 06:40:00, 3.68
03-Jun-2023 06:50:00, 3.76
03-Jun-2023 07:00:00, 3.53
03-Jun-2023 07:10:00, 3.55
03-Jun-2023 07:20:00, 3.57
03-Jun-2023 07:30:00, 3.55
03-Jun-2023 07:40:00, 3.56
03-Jun-2023 07:50:00, 3.59
03-Jun-2023 08:00:00, 3.57
03-Jun-2023 08:10:00, 3.52
03-Jun-2023 08:20:00, 3.50
03-Jun-2023 08:30:00, 3.51
03-Jun-2023 08:40:00, 3.52
03-Jun-2023 08:50:00, 3.49
03-Jun-2023 09:00:00, 3.46
03-Jun-2023 09:10:00, 3.45
03-Jun-2023 09:20:00, 3.44
03-Jun-2023 09:30:00, 3.43
03-Jun-2023 09:40:00, 3.41
03-Jun-2023 09:50:00, 3.41
03-Jun-2023 10:00:00, 3.42
03-Jun-2023 10:10:00, 3.44
03-Jun-2023 10:20:00, 3.44
03-Jun-2023 10:30:00, 3.46
03-Jun-2023 10:40:00, 3.45
03-Jun-2023 10:50:00, 3.43
03-Jun-2023 11:00:00, 3.41
03-Jun-2023 11:10:00, 3.42
03-Jun-2023 11:20:00, 3.43
03-Jun-2023 11:30:00, 3.43
03-Jun-2023 11:40:00, 3.42
03-Jun-2023 11:50:00, 3.43
03-Jun-2023 12:00:00, 3.43
03-Jun-2023 12:10:00, 3.43
03-Jun-2023 12:20:00, 3.42
03-Jun-2023 12:30:00, 3.43
03-Jun-2023 12:40:00, 3.41
03-Jun-2023 12:50:00, 3.42
03-Jun-2023 13:00:00, 3.44
03-Jun-2023 13:10:00, 3.44
03-Jun-2023 13:20:00, 3.36
03-Jun-2023 13:30:00, 3.27
03-Jun-2023 13:40:00, 3.26
03-Jun-2023 13:50:00, 3.28
03-Jun-2023 14:00:00, 3.26
03-Jun-2023 14:10:00, 3.28
03-Jun-2023 14:20:00, 3.25
03-Jun-2023 14:30:00, 3.30
03-Jun-2023 14:40:00, 3.25
03-Jun-2023 14:50:00, 3.27
03-Jun-2023 15:00:00, 3.31
03-Jun-2023 15:10:00, 3.29
03-Jun-2023 15:20:00, 3.27
03-Jun-2023 15:30:00, 3.31
03-Jun-2023 15:40:00, 3.31
03-Jun-2023 15:50:00, 3.30
03-Jun-2023 16:00:00, 3.33
03-Jun-2023 16:10:00, 3.36
03-Jun-2023 16:20:00, 3.43
03-Jun-2023 16:30:00, 3.42
03-Jun-2023 16:40:00, 3.39
03-Jun-2023 16:50:00, 3.36
03-Jun-2023 17:00:00, 3.36
03-Jun-2023 17:10:00, 3.35
03-Jun-2023 17:20:00, 3.38
03-Jun-2023 17:30:00, 3.39
03-Jun-2023 17:40:00, 3.38
03-Jun-2023 17:50:00, 3.37
03-Jun-2023 18:00:00, 3.36
03-Jun-2023 18:10:00, 3.34
03-Jun-2023 18:20:00, 3.35
03-Jun-2023 18:30:00, 3.37
03-Jun-2023 18:40:00, 3.34
03-Jun-2023 18:50:00, 3.35
03-Jun-2023 19:00:00, 3.43
03-Jun-2023 19:10:00, 3.43
03-Jun-2023 19:20:00, 3.38
03-Jun-2023 19:30:00, 3.40
03-Jun-2023 19:40:00, 3.42
03-Jun-2023 19:50:00, 4.48
03-Jun-2023 20:00:00, 4.38
03-Jun-2023 20:10:00, 4.24
03-Jun-2023 20:20:00, 3.52
03-Jun-2023 20:30:00, 3.60
03-Jun-2023 20:40:00, 3.61
03-Jun-2023 20:50:00, 3.71
03-Jun-2023 21:00:00, 3.49
03-Jun-2023 21:10:00, 3.46
03-Jun-2023 21:20:00, 3.35
03-Jun-2023 21:30:00, 3.40
03-Jun-2023 21:40:00, 3.39
03-Jun-2023 21:50:00, 3.37
03-Jun-2023 22:00:00, 3.38
03-Jun-2023 22:10:00, 3.31
03-Jun-2023 22:20:00, 3.29
03-Jun-2023 22:30:00, 3.28
03-Jun-2023 22:40:00, 3.32
03-Jun-2023 22:50:00, 3.30
03-Jun-2023 23:00:00, 3.31
03-Jun-2023 23:10:00, 3.30
03-Jun-2023 23:20:00, 3.24
03-Jun-2023 23:30:00, 3.23
03-Jun-2023 23:40:00, 3.27
03-Jun-2023 23:50:00, 3.24
04-Jun-2023 00:00:00, 3.27
04-Jun-2023 00:10:00, 3.26
04-Jun-2023 00:20:00, 3.25
04-Jun-2023 00:30:00, 3.25
04-Jun-2023 00:40:00, 3.24
04-Jun-2023 00:50:00, 3.25
04-Jun-2023 01:00:00, 3.27
04-Jun-2023 01:10:00, 3.25
04-Jun-2023 01:20:00, 3.25
04-Jun-2023 01:30:00, 3.29
04-Jun-2023 01:40:00, 3.30
04-Jun-2023 01:50:00, 3.30
04-Jun-2023 02:00:00, 3.29
04-Jun-2023 02:10:00, 3.29
04-Jun-2023 02:20:00, 3.29
04-Jun-2023 02:30:00, 3.28
04-Jun-2023 02:40:00, 3.28
04-Jun-2023 02:50:00, 3.28
04-Jun-2023 03:00:00, 3.28
04-Jun-2023 03:10:00, 3.29
04-Jun-2023 03:20:00, 3.29
04-Jun-2023 03:30:00, 3.28
04-Jun-2023 03:40:00, 3.28
04-Jun-2023 03:50:00, 3.29
04-Jun-2023 04:00:00, 3.29
04-Jun-2023 04:10:00, 3.29
04-Jun-2023 04:20:00, 3.30
04-Jun-2023 04:30:00, 3.30
04-Jun-2023 04:40:00, 3.30
04-Jun-2023 04:50:00, 3.30
04-Jun-2023 05:00:00, 3.31
04-Jun-2023 05:10:00, 3.29
04-Jun-2023 05:20:00, 3.28
04-Jun-2023 05:30:00, 3.28
04-Jun-2023 05:40:00, 3.56
04-Jun-2023 05:50:00, 3.72
04-Jun-2023 06:00:00, 5.08
04-Jun-2023 06:10:00, 3.77
04-Jun-2023 06:20:00, 5.08
04-Jun-2023 06:30:00, 5.93
04-Jun-2023 06:40:00, 4.06
04-Jun-2023 06:50:00, 3.37
04-Jun-2023 07:00:00, 3.87
04-Jun-2023 07:10:00, 3.52
04-Jun-2023 07:20:00, 3.19
04-Jun-2023 07:30:00, 3.20
04-Jun-2023 07:40:00, 3.17
04-Jun-2023 07:50:00, 3.16
04-Jun-2023 08:00:00, 3.13
04-Jun-2023 08:10:00, 3.13
04-Jun-2023 08:20:00, 3.13
04-Jun-2023 08:30:00, 3.13
04-Jun-2023 08:40:00, 3.13
04-Jun-2023 08:50:00, 3.13
04-Jun-2023 09:00:00, 3.13
04-Jun-2023 09:10:00, 3.14
04-Jun-2023 09:20:00, 3.14
04-Jun-2023 09:30:00, 3.14
04-Jun-2023 09:40:00, 3.13
04-Jun-2023 09:50:00, 3.13
04-Jun-2023 10:00:00, 3.13
04-Jun-2023 10:10:00, 3.13
04-Jun-2023 10:20:00, 3.12
04-Jun-2023 10:30:00, 3.12
04-Jun-2023 10:40:00, 3.12
04-Jun-2023 10:50:00, 3.13
04-Jun-2023 11:00:00, 3.13
04-Jun-2023 11:10:00, 3.13
04-Jun-2023 11:20:00, 3.13
04-Jun-2023 11:30:00, 3.14
04-Jun-2023 11:40:00, 3.14
04-Jun-2023 11:50:00, 3.14
04-Jun-2023 12:00:00, 3.15
04-Jun-2023 12:10:00, 3.16
04-Jun-2023 12:20:00, 3.18
04-Jun-2023 12:30:00, 3.18
04-Jun-2023 12:40:00, 3.17
04-Jun-2023 12:50:00, 3.19
04-Jun-2023 13:00:00, 3.19
04-Jun-2023 13:10:00, 3.23
04-Jun-2023 13:20:00, 3.22
04-Jun-2023 13:30:00, 3.23
04-Jun-2023 13:40:00, 3.24
04-Jun-2023 13:50:00, 3.21
04-Jun-2023 14:00:00, 3.22
04-Jun-2023 14:10:00, 3.25
04-Jun-2023 14:20:00, 3.22
04-Jun-2023 14:30:00, 3.22
04-Jun-2023 14:40:00, 3.22
04-Jun-2023 14:50:00, 3.23
04-Jun-2023 15:00:00, 3.28
04-Jun-2023 15:10:00, 3.28
04-Jun-2023 15:20:00, 3.22
04-Jun-2023 15:30:00, 3.23
04-Jun-2023 15:40:00, 3.29
04-Jun-2023 15:50:00, 3.29
04-Jun-2023 16:00:00, 3.28
04-Jun-2023 16:10:00, 3.28
04-Jun-2023 16:20:00, 3.25
04-Jun-2023 16:30:00, 3.27
04-Jun-2023 16:40:00, 3.27
04-Jun-2023 16:50:00, 3.26
04-Jun-2023 17:00:00, 3.24
04-Jun-2023 17:10:00, 3.32
04-Jun-2023 17:20:00, 3.24
04-Jun-2023 17:30:00, 3.28
04-Jun-2023 17:40:00, 3.27
04-Jun-2023 17:50:00, 3.29
04-Jun-2023 18:00:00, 3.32
04-Jun-2023 18:10:00, 3.32
04-Jun-2023 18:20:00, 3.33
04-Jun-2023 18:30:00, 3.34
04-Jun-2023 18:40:00, 3.31
04-Jun-2023 18:50:00, 3.42
04-Jun-2023 19:00:00, 3.36
04-Jun-2023 19:10:00, 3.39
04-Jun-2023 19:20:00, 3.34
04-Jun-2023 19:30:00, 3.37
04-Jun-2023 19:40:00, 3.37
04-Jun-2023 19:50:00, 3.40
04-Jun-2023 20:00:00, 3.35
04-Jun-2023 20:10:00, 3.41
04-Jun-2023 20:20:00, 3.39
04-Jun-2023 20:30:00, 3.37
04-Jun-2023 20:40:00, 3.45
04-Jun-2023 20:50:00, 3.47
04-Jun-2023 21:00:00, 3.48
04-Jun-2023 21:10:00, 3.41
04-Jun-2023 21:20:00, 3.40
04-Jun-2023 21:30:00, 3.45
04-Jun-2023 21:40:00, 3.52
04-Jun-2023 21:50:00, 3.53
04-Jun-2023 22:00:00, 3.49
04-Jun-2023 22:10:00, 4.66
04-Jun-2023 22:20:00, 5.86
04-Jun-2023 22:30:00, 7.70
04-Jun-2023 22:40:00, 7.81
04-Jun-2023 22:50:00, 7.87
04-Jun-2023 23:00:00, 6.96
04-Jun-2023 23:10:00, 6.18
04-Jun-2023 23:20:00, 3.93
04-Jun-2023 23:30:00, 7.98
04-Jun-2023 23:40:00, 6.76
04-Jun-2023 23:50:00, 4.69
05-Jun-2023 00:00:00, 10.96
05-Jun-2023 00:10:00, 10.67
05-Jun-2023 00:20:00, 8.51
05-Jun-2023 00:30:00, 7.50
05-Jun-2023 00:40:00, 5.39
05-Jun-2023 00:50:00, 4.41
05-Jun-2023 01:00:00, 4.10
05-Jun-2023 01:10:00, 3.85
05-Jun-2023 01:20:00, 3.65
05-Jun-2023 01:30:00, 3.54
05-Jun-2023 01:40:00, 3.48
05-Jun-2023 01:50:00, 3.47
05-Jun-2023 02:00:00, 3.46
05-Jun-2023 02:10:00, 3.44
05-Jun-2023 02:20:00, 3.43
05-Jun-2023 02:30:00, 3.44
05-Jun-2023 02:40:00, 3.43
05-Jun-2023 02:50:00, 3.42
05-Jun-2023 03:00:00, 3.43
05-Jun-2023 03:10:00, 3.42
05-Jun-2023 03:20:00, 3.43
05-Jun-2023 03:30:00, 3.43
05-Jun-2023 03:40:00, 3.43
05-Jun-2023 03:50:00, 3.42
05-Jun-2023 04:00:00, 3.42
05-Jun-2023 04:10:00, 3.47
05-Jun-2023 04:20:00, 3.46
05-Jun-2023 04:30:00, 3.48
05-Jun-2023 04:40:00, 3.45
05-Jun-2023 04:50:00, 3.47
05-Jun-2023 05:00:00, 9.40
05-Jun-2023 05:10:00, 11.44
05-Jun-2023 05:20:00, 11.98
05-Jun-2023 05:30:00, 12.07
05-Jun-2023 05:40:00, 12.14
05-Jun-2023 05:50:00, 12.05
05-Jun-2023 06:00:00, 11.94
05-Jun-2023 06:10:00, 11.92
05-Jun-2023 06:20:00, 12.10
05-Jun-2023 06:30:00, 12.11
05-Jun-2023 06:40:00, 11.94
05-Jun-2023 06:50:00, 12.05
05-Jun-2023 07:00:00, 12.07
05-Jun-2023 07:10:00, 12.13
05-Jun-2023 07:20:00, 12.08
05-Jun-2023 07:30:00, 11.90
05-Jun-2023 07:40:00, 11.91
05-Jun-2023 07:50:00, 11.93
05-Jun-2023 08:00:00, 11.99
05-Jun-2023 08:10:00, 12.04
05-Jun-2023 08:20:00, 12.04
05-Jun-2023 08:30:00, 12.08
05-Jun-2023 08:40:00, 12.11
05-Jun-2023 08:50:00, 12.14
05-Jun-2023 09:00:00, 12.12
05-Jun-2023 09:10:00, 12.23
05-Jun-2023 09:20:00, 12.41
05-Jun-2023 09:30:00, 12.52
05-Jun-2023 09:40:00, 12.35
05-Jun-2023 09:50:00, 12.28
05-Jun-2023 10:00:00, 12.23
05-Jun-2023 10:10:00, 11.97
05-Jun-2023 10:20:00, 11.76
05-Jun-2023 10:30:00, 11.50
05-Jun-2023 10:40:00, 11.64
05-Jun-2023 10:50:00, 11.38
05-Jun-2023 11:00:00, 11.58
05-Jun-2023 11:10:00, 11.42
05-Jun-2023 11:20:00, 11.21
05-Jun-2023 11:30:00, 10.93
05-Jun-2023 11:40:00, 11.54
05-Jun-2023 11:50:00, 11.80
05-Jun-2023 12:00:00, 11.38
05-Jun-2023 12:10:00, 10.84
05-Jun-2023 12:20:00, 11.06
05-Jun-2023 12:30:00, 10.87
05-Jun-2023 12:40:00, 10.43
05-Jun-2023 12:50:00, 9.49
05-Jun-2023 13:00:00, 8.65
05-Jun-2023 13:10:00, 8.38
05-Jun-2023 13:20:00, 8.37
05-Jun-2023 13:30:00, 7.53
05-Jun-2023 13:40:00, 7.26
05-Jun-2023 13:50:00, 7.13
05-Jun-2023 14:00:00, 6.64
05-Jun-2023 14:10:00, 5.84
05-Jun-2023 14:20:00, 5.70
05-Jun-2023 14:30:00, 5.13
05-Jun-2023 14:40:00, 4.96
05-Jun-2023 14:50:00, 4.56
05-Jun-2023 15:00:00, 4.31
05-Jun-2023 15:10:00, 4.23
05-Jun-2023 15:20:00, 4.41
05-Jun-2023 15:30:00, 4.35
05-Jun-2023 15:40:00, 4.23
05-Jun-2023 15:50:00, 4.12
05-Jun-2023 16:00:00, 4.04
05-Jun-2023 16:10:00, 4.01
05-Jun-2023 16:20:00, 3.96
05-Jun-2023 16:30:00, 4.00
05-Jun-2023 16:40:00, 3.99
05-Jun-2023 16:50:00, 3.98
05-Jun-2023 17:00:00, 3.98
05-Jun-2023 17:10:00, 3.99
05-Jun-2023 17:20:00, 3.98
05-Jun-2023 17:30:00, 3.98
05-Jun-2023 17:40:00, 4.00
05-Jun-2023 17:50:00, 4.04
05-Jun-2023 18:00:00, 4.03
05-Jun-2023 18:10:00, 4.00
05-Jun-2023 18:20:00, 4.01
05-Jun-2023 18:30:00, 4.03
05-Jun-2023 18:40:00, 4.04
05-Jun-2023 18:50:00, 4.03
05-Jun-2023 19:00:00, 4.02
05-Jun-2023 19:10:00, 4.01
05-Jun-2023 19:20:00, 4.01
05-Jun-2023 19:30:00, 3.98
05-Jun-2023 19:40:00, 3.99
05-Jun-2023 19:50:00, 3.99
05-Jun-2023 20:00:00, 3.99
05-Jun-2023 20:10:00, 3.98
05-Jun-2023 20:20:00, 3.99
05-Jun-2023 20:30:00, 4.01
05-Jun-2023 20:40:00, 4.00
05-Jun-2023 20:50:00, 3.99
05-Jun-2023 21:00:00, 3.95
05-Jun-2023 21:10:00, 3.95
05-Jun-2023 21:20:00, 3.99
05-Jun-2023 21:30:00, 3.98
05-Jun-2023 21:40:00, 3.98
05-Jun-2023 21:50:00, 4.00
05-Jun-2023 22:00:00, 4.00
05-Jun-2023 22:10:00, 4.01
05-Jun-2023 22:20:00, 3.99
05-Jun-2023 22:30:00, 3.99
05-Jun-2023 22:40:00, 3.99
05-Jun-2023 22:50:00, 3.98
05-Jun-2023 23:00:00, 3.98
05-Jun-2023 23:10:00, 3.99
05-Jun-2023 23:20:00, 3.99
05-Jun-2023 23:30:00, 4.00
05-Jun-2023 23:40:00, 4.00
05-Jun-2023 23:50:00, 4.00
06-Jun-2023 00:00:00, 3.99
06-Jun-2023 00:10:00, 3.98
06-Jun-2023 00:20:00, 3.99
06-Jun-2023 00:30:00, 3.99
06-Jun-2023 00:40:00, 4.00
06-Jun-2023 00:50:00, 3.98
06-Jun-2023 01:00:00, 3.97
06-Jun-2023 01:10:00, 3.96
06-Jun-2023 01:20:00, 7.87
06-Jun-2023 01:30:00, 7.89
06-Jun-2023 01:40:00, 7.84
06-Jun-2023 01:50:00, 7.80
06-Jun-2023 02:00:00, 7.87
06-Jun-2023 02:10:00, 7.90
06-Jun-2023 02:20:00, 7.81
06-Jun-2023 02:30:00, 7.76
06-Jun-2023 02:40:00, 7.74
06-Jun-2023 02:50:00, 7.71
06-Jun-2023 03:00:00, 7.69
06-Jun-2023 03:10:00, 7.68
06-Jun-2023 03:20:00, 7.67
06-Jun-2023 03:30:00, 7.67
06-Jun-2023 03:40:00, 7.67
06-Jun-2023 03:50:00, 7.67
06-Jun-2023 04:00:00, 7.65
06-Jun-2023 04:10:00, 7.63
06-Jun-2023 04:20:00, 7.60
06-Jun-2023 04:30:00, 7.59
06-Jun-2023 04:40:00, 7.57
06-Jun-2023 04:50:00, 7.57
06-Jun-2023 05:00:00, 7.55
06-Jun-2023 05:10:00, 7.56
06-Jun-2023 05:20:00, 7.56
06-Jun-2023 05:30:00, 7.56
06-Jun-2023 05:40:00, 7.56
06-Jun-2023 05:50:00, 7.56
06-Jun-2023 06:00:00, 7.56
06-Jun-2023 06:10:00, 7.56
06-Jun-2023 06:20:00, 7.56
06-Jun-2023 06:30:00, 7.56
06-Jun-2023 06:40:00, 7.55
06-Jun-2023 06:50:00, 7.55
06-Jun-2023 07:00:00, 7.54
06-Jun-2023 07:10:00, 7.52
06-Jun-2023 07:20:00, 7.50
06-Jun-2023 07:30:00, 7.48
06-Jun-2023 07:40:00, 7.46
06-Jun-2023 07:50:00, 7.46
06-Jun-2023 08:00:00, 7.45
06-Jun-2023 08:10:00, 7.43
06-Jun-2023 08:20:00, 7.42
06-Jun-2023 08:30:00, 7.41
06-Jun-2023 08:40:00, 7.41
06-Jun-2023 08:50:00, 7.39
06-Jun-2023 09:00:00, 7.39
06-Jun-2023 09:10:00, 7.38
06-Jun-2023 09:20:00, 7.38
06-Jun-2023 09:30:00, 7.37
06-Jun-2023 09:40:00, 7.36
06-Jun-2023 09:50:00, 7.36
06-Jun-2023 10:00:00, 7.34
06-Jun-2023 10:10:00, 7.31
06-Jun-2023 10:20:00, 7.30
06-Jun-2023 10:30:00, 7.27
06-Jun-2023 10:40:00, 7.25
06-Jun-2023 10:50:00, 7.19
06-Jun-2023 11:00:00, 7.17
06-Jun-2023 11:10:00, 7.06
06-Jun-2023 11:20:00, 6.98
06-Jun-2023 11:30:00, 7.00
06-Jun-2023 11:40:00, 6.90
06-Jun-2023 11:50:00, 6.87
06-Jun-2023 12:00:00, 6.83
06-Jun-2023 12:10:00, 6.89
06-Jun-2023 12:20:00, 7.03
06-Jun-2023 12:30:00, 7.05
06-Jun-2023 12:40:00, 7.15
06-Jun-2023 12:50:00, 7.14
06-Jun-2023 13:00:00, 7.14
06-Jun-2023 13:10:00, 7.17
06-Jun-2023 13:20:00, 7.10
06-Jun-2023 13:30:00, 7.03
06-Jun-2023 13:40:00, 7.01
06-Jun-2023 13:50:00, 6.95
06-Jun-2023 14:00:00, 6.98
06-Jun-2023 14:10:00, 7.03
06-Jun-2023 14:20:00, 7.09
06-Jun-2023 14:30:00, 7.13
06-Jun-2023 14:40:00, 7.12
06-Jun-2023 14:50:00, 7.12
06-Jun-2023 15:00:00, 7.05
06-Jun-2023 15:10:00, 7.11
06-Jun-2023 15:20:00, 7.06
06-Jun-2023 15:30:00, 7.17
06-Jun-2023 15:40:00, 7.19
06-Jun-2023 15:50:00, 7.28
06-Jun-2023 16:00:00, 7.18